Theta_e
301 296 294 294 295 296 297 297 296 294 296 296 296 294 292 294 294 292 292 294 293 295 296 297 297 297 298 299 301 303 302 300 299 300 301 303 304 305 305 305 306 306 307 313 310 309 308 308 308 310 315 320 323 324 324 324 326 328 329 330 329 331 332 331 331 332 332 330 331 333 332 331 332 333 334 334 334 333 333 332 330 328 327 327 326 324
300 296 295 297 297 297 295 293 294 294 295 295 294 294 292 294 293 293 294 293 295 294 296 292 294 296 298 300 301 303 301 300 300 301 302 303 304 306 306 307 308 308 310 308 306 306 306 306 308 308 309 311 315 320 322 323 324 325 327 328 329 331 331 330 331 331 331 331 331 330 332 333 334 334 332 332 334 334 333 331 330 329 327 327 327 325
295 293 297 296 293 293 293 294 295 296 294 294 295 294 294 293 294 293 293 294 295 294 296 294 295 297 300 301 302 302 302 303 303 304 304 305 305 306 305 306 306 307 308 308 306 307 307 308 308 306 307 309 312 316 320 322 323 324 325 326 328 329 329 330 330 331 330 332 331 331 331 333 334 336 335 334 334 335 335 333 331 332 331 330 329 327
291 295 295 292 293 293 292 293 295 295 296 295 293 292 292 295 291 291 294 294 293 294 295 295 293 297 300 301 301 303 303 303 304 303 303 304 303 304 305 306 306 306 307 307 307 307 307 307 306 306 306 306 309 312 316 319 321 323 324 325 326 327 329 329 330 329 332 332 332 333 332 333 332 331 333 335 336 336 336 335 335 334 333 331 329 326
293 292 291 292 294 295 292 292 294 294 293 294 297 295 293 290 292 294 293 292 291 291 291 294 295 296 299 298 299 298 294 293 296 297 298 300 302 303 305 304 304 303 305 306 307 308 307 306 305 305 306 307 306 309 311 315 319 320 323 324 325 326 327 328 328 329 330 330 332 332 333 334 331 329 332 332 332 333 333 333 332 331 331 329 327 326
292 292 292 292 294 294 294 291 295 296 292 293 295 296 295 295 293 291 292 292 293 294 292 291 290 291 296 296 296 299 297 297 297 296 300 302 302 301 300 302 304 305 305 304 305 306 307 306 306 305 304 305 306 306 309 313 316 318 321 323 325 326 326 327 328 328 328 328 328 327 326 325 325 325 324 325 326 327 328 329 333 332 331 330 330 329
293 290 292 294 294 295 296 294 296 298 293 290 293 295 295 295 296 294 292 294 289 288 291 290 289 288 297 296 298 298 296 297 299 299 300 301 302 299 300 302 302 302 302 303 303 303 303 304 304 304 304 304 304 306 308 310 312 316 318 321 323 324 325 326 326 327 326 327 327 326 326 326 324 324 326 330 331 330 330 331 332 332 333 332 330 329
291 291 292 295 295 295 294 292 294 295 294 291 292 293 295 295 296 296 295 295 292 293 293 291 293 288 289 295 297 293 294 297 298 300 302 302 299 299 299 300 300 301 301 302 303 303 303 303 303 304 305 304 304 305 307 308 309 312 315 319 320 322 323 325 325 325 325 324 326 326 326 326 325 325 325 327 330 332 332 331 331 332 332 332 331 329
293 290 293 292 293 293 294 295 297 297 295 293 288 294 295 296 296 295 296 292 291 290 289 291 295 287 288 294 293 292 295 297 298 300 302 301 301 300 301 302 303 303 303 303 303 304 303 302 303 302 303 304 303 304 306 308 309 312 314 317 319 321 322 323 323 323 324 324 324 325 325 324 325 326 327 328 329 328 330 330 331 330 331 331 331 332
293 295 295 296 294 292 293 288 291 296 295 291 290 292 291 293 294 296 293 293 291 289 286 290 292 286 288 296 295 293 292 294 296 299 299 299 300 301 302 304 304 303 303 303 302 302 302 301 301 302 302 305 306 305 307 310 312 313 315 316 318 319 321 321 322 322 324 324 324 324 324 324 324 325 326 327 326 326 327 326 327 328 328 328 328 329
293 294 293 293 295 294 290 290 291 293 294 293 295 296 295 294 294 293 292 291 290 284 287 287 286 287 285 294 294 294 296 297 298 297 298 300 302 302 302 302 303 301 302 302 303 304 303 303 302 302 306 307 306 306 307 310 311 314 314 316 317 318 320 320 320 321 322 323 323 323 323 323 323 324 324 322 323 323 324 323 325 326 327 328 328 328
295 295 295 293 291 292 295 293 292 291 293 296 295 294 293 291 293 291 289 290 284 283 285 284 286 287 283 290 296 296 294 292 295 296 297 300 301 302 304 303 301 300 300 301 304 306 306 306 306 307 307 308 308 308 309 311 313 314 315 316 316 318 318 319 319 320 321 322 323 323 324 323 323 323 322 321 321 321 320 321 322 324 324 325 326 326
293 293 293 294 294 294 296 294 292 294 295 295 295 293 288 285 286 283 286 282 283 283 285 285 286 284 285 292 295 295 295 296 294 296 299 299 300 303 304 303 301 301 301 301 304 306 307 308 308 308 307 308 309 310 310 311 313 314 315 316 317 315 316 317 318 318 320 321 321 322 322 323 323 323 322 321 321 322 321 321 320 322 322 322 321 322
291 294 292 295 295 295 298 292 289 289 292 292 292 290 286 282 281 279 281 281 280 283 284 286 287 283 291 294 297 297 299 297 296 296 298 299 299 300 301 301 300 303 302 302 304 306 307 307 307 307 308 309 309 310 310 310 312 313 314 316 316 314 314 315 316 317 318 319 320 321 321 322 321 321 322 321 320 321 322 321 320 320 321 320 320 321
284 285 290 293 291 297 294 296 295 294 292 292 295 294 289 287 283 278 280 279 282 284 283 285 283 286 287 291 293 296 297 296 295 294 295 295 296 297 298 298 299 301 303 303 307 308 307 307 306 308 307 308 309 309 310 310 312 313 314 315 316 313 311 312 313 315 316 317 318 319 320 320 320 320 320 320 321 321 321 321 320 320 320 320 320 320
289 288 290 292 291 293 295 295 297 295 292 292 291 293 289 288 292 284 282 283 281 283 282 282 285 291 292 297 297 297 296 295 295 294 293 295 297 298 299 302 303 303 303 303 307 309 308 306 305 306 307 307 308 308 309 310 311 313 314 315 316 315 311 310 312 313 315 316 317 317 317 317 318 318 319 319 319 320 321 321 320 320 321 322 322 322
285 286 291 294 293 293 294 292 294 296 287 291 290 287 290 293 289 279 279 279 278 281 282 288 287 292 295 295 297 298 294 295 295 294 293 296 297 297 301 304 303 305 305 305 306 307 308 307 305 305 306 307 307 307 309 310 310 312 312 313 313 313 312 311 311 312 313 315 315 315 315 316 316 316 315 316 318 318 319 319 319 319 319 319 319 319
287 286 288 291 291 292 291 291 294 291 293 292 286 291 290 293 295 289 283 280 281 280 283 283 284 287 287 286 297 294 295 296 296 294 294 296 296 298 303 304 305 307 304 300 300 302 304 305 305 306 305 306 308 309 309 309 308 310 312 313 313 311 311 312 313 313 313 314 313 314 314 315 315 315 316 317 318 318 317 316 316 317 316 317 317 316
294 284 288 288 290 292 292 293 294 294 292 293 293 298 291 285 284 286 286 277 278 277 281 284 282 283 287 290 294 293 293 295 295 294 293 296 297 301 302 303 305 304 303 304 303 305 306 307 307 307 307 306 306 306 308 308 307 308 309 311 313 312 313 312 312 313 313 313 314 315 315 315 315 316 316 317 316 316 314 314 315 315 315 315 315 314
295 288 285 290 291 292 294 294 287 290 294 293 292 291 291 291 290 285 285 286 285 282 278 282 281 284 291 291 293 294 296 296 294 296 296 297 298 298 300 303 304 306 304 302 302 304 305 306 306 306 306 306 305 305 305 305 306 307 308 308 309 310 309 309 310 310 311 311 312 312 312 312 312 312 313 314 313 313 312 313 313 313 313 313 313 312
289 291 284 289 291 291 288 291 291 292 288 288 289 288 291 288 290 290 287 285 284 282 280 281 280 286 293 293 293 294 295 295 294 296 298 298 299 298 299 301 304 303 301 300 302 303 305 307 306 305 304 304 303 302 303 304 305 307 307 307 308 308 308 308 309 308 310 310 309 309 309 310 309 309 310 310 310 310 311 311 311 311 312 311 310 310
288 286 285 286 287 287 290 290 289 293 295 291 291 288 291 286 285 283 282 284 281 284 279 278 280 288 295 290 294 295 295 294 293 295 299 298 298 299 301 300 299 300 299 299 302 303 305 306 306 304 302 302 302 303 303 303 304 304 305 307 307 307 308 309 308 308 308 308 308 308 308 308 308 308 308 308 308 308 309 309 310 310 309 308 309 309
293 291 288 284 288 289 289 290 287 286 289 292 291 291 295 292 291 287 282 283 282 282 281 282 280 285 296 292 292 294 293 292 291 292 294 296 298 299 300 298 298 297 297 299 301 303 303 304 302 301 302 303 303 303 302 302 303 305 305 304 305 306 307 307 308 307 307 307 307 307 307 307 306 306 306 306 307 307 307 307 307 307 306 307 307 308
291 287 286 284 288 289 289 289 290 288 292 292 292 292 292 289 292 291 289 287 285 282 282 283 279 286 296 292 290 291 291 291 290 290 294 294 295 297 299 300 300 302 301 302 302 302 302 301 301 304 304 303 303 303 303 304 303 303 304 304 304 305 305 305 305 305 304 305 305 305 304 304 305 304 305 305 306 305 306 305 305 305 304 305 305 305
288 288 288 282 282 285 287 290 290 292 292 291 291 292 293 293 289 285 285 287 286 284 286 284 279 286 294 294 290 291 292 294 296 294 293 296 297 298 299 300 301 302 303 303 303 303 303 303 302 302 302 303 302 302 301 301 301 301 301 300 301 301 301 301 301 302 303 303 303 303 303 303 303 303 303 303 304 303 303 303 302 302 302 303 303 303
291 289 286 281 278 277 277 279 282 285 287 291 287 290 291 291 289 286 285 285 284 284 284 285 285 292 291 294 293 293 294 296 297 296 293 295 298 298 301 302 301 302 303 303 305 304 303 301 301 301 300 301 300 300 301 300 300 300 300 298 298 299 298 298 299 300 301 301 303 302 301 301 301 301 301 301 301 301 301 301 300 301 301 301 301 302
289 289 289 288 285 283 286 288 291 294 290 286 289 290 289 291 291 293 289 285 283 285 283 287 289 290 288 292 292 294 294 296 298 298 299 299 297 296 299 301 302 303 304 302 302 301 301 302 301 300 300 299 299 299 299 299 299 299 300 299 298 298 299 298 299 300 301 301 301 302 301 300 300 300 300 300 300 300 299 299 299 299 299 300 299 299
289 287 290 290 290 291 292 292 292 294 290 291 289 288 290 290 289 288 287 285 290 284 281 289 291 288 290 293 294 296 295 296 297 297 297 297 299 301 300 300 298 301 302 301 301 303 302 301 301 300 299 298 299 299 299 298 297 297 297 297 297 297 297 298 299 299 299 300 301 300 299 299 299 299 299 299 299 299 299 299 299 299 298 298 297 298
289 287 291 290 289 293 294 292 292 294 294 293 292 290 288 290 289 286 288 292 291 286 285 291 291 289 292 293 295 296 297 297 298 298 298 297 297 297 299 301 301 303 303 301 303 302 302 302 300 299 298 298 298 297 297 297 297 297 298 297 296 296 295 297 298 298 298 299 298 297 297 298 297 298 297 297 297 297 298 297 297 297 297 297 297 298
291 288 291 291 288 291 290 291 291 293 290 291 291 290 290 290 289 290 291 293 293 290 292 293 295 292 294 294 296 297 298 298 297 295 295 298 299 298 299 300 301 302 302 301 301 301 300 299 297 296 297 297 296 296 296 296 296 295 295 295 295 295 294 296 297 297 297 296 295 295 296 296 296 296 296 296 296 296 296 296 296 296 296 296 296 296
291 287 291 288 286 287 290 288 288 291 290 287 290 291 290 290 290 291 292 293 293 292 293 293 293 291 296 297 297 298 297 295 295 295 297 299 298 298 300 301 302 302 301 298 299 299 298 296 296 296 295 294 294 294 294 294 295 295 294 294 294 294 294 296 295 295 295 294 295 295 295 295 295 295 295 295 295 295 294 294 294 295 294 295 295 295
291 287 287 288 285 284 287 286 287 286 286 286 286 288 288 288 287 290 289 292 291 289 291 291 289 290 295 296 297 295 295 296 296 298 298 299 298 299 300 300 301 301 298 297 298 297 296 296 295 294 293 293 293 293 293 293 294 294 293 293 293 293 295 295 295 294 294 294 294 294 294 294 294 294 294 294 293 293 293 293 293 294 294 295 294 295
289 288 285 286 284 284 284 286 285 285 284 282 283 287 289 290 291 292 293 294 294 295 290 287 288 295 294 295 294 294 295 296 297 297 298 300 300 299 299 300 300 298 296 297 297 296 295 294 293 292 292 292 292 292 291 292 293 292 292 292 293 294 294 293 293 293 293 293 292 292 293 292 292 292 292 292 291 292 292 292 292 293 292 293 293 293
289 289 288 289 283 283 278 283 285 283 277 279 291 294 293 290 290 289 290 291 294 295 293 295 295 297 296 296 295 295 293 295 297 299 299 298 299 299 298 297 297 296 294 293 294 293 293 293 292 291 291 291 291 291 291 291 291 292 292 292 293 293 293 293 292 292 292 292 291 291 291 291 291 291 291 291 290 291 291 291 291 292 292 292 292 293
287 287 288 286 285 282 280 283 280 275 278 290 296 296 295 294 293 292 293 293 294 294 295 295 295 296 297 296 297 297 297 296 292 294 293 290 293 296 297 296 295 295 294 292 292 292 292 292 291 291 291 290 290 291 291 291 291 292 292 292 291 291 291 291 291 291 291 290 290 290 290 290 290 290 290 290 289 289 288 290 290 290 290 290 291 291
287 288 287 284 286 283 280 281 275 277 287 291 291 292 296 295 294 293 291 294 295 295 295 294 295 297 298 297 297 297 298 295 291 289 288 289 290 293 295 295 293 292 291 291 291 291 291 291 291 290 289 290 290 290 290 290 291 291 290 291 290 290 290 290 290 289 289 289 289 289 289 289 289 289 289 289 288 288 288 288 288 288 289 289 290 290
293 291 289 285 287 281 281 281 281 288 286 289 290 288 290 288 289 289 285 289 294 295 295 294 295 296 297 298 297 293 294 294 295 292 287 288 288 289 292 291 291 290 289 290 290 290 290 290 290 289 289 289 289 289 289 290 290 290 290 289 289 289 289 289 288 288 288 288 288 288 288 288 288 288 288 287 287 287 287 287 288 288 289 288 288 289
293 288 290 286 283 287 282 279 280 281 278 286 293 296 295 295 295 295 291 288 296 296 296 295 295 296 297 297 295 292 294 294 291 294 288 287 288 288 288 289 289 289 289 289 289 289 289 289 288 288 288 288 288 288 289 289 289 289 288 288 288 288 288 287 287 287 287 287 287 287 288 287 287 287 286 286 286 286 286 287 287 288 288 287 287 288
293 294 292 287 287 284 283 280 279 277 281 289 293 293 294 294 296 294 289 285 294 295 296 296 295 296 296 296 294 294 291 289 290 294 287 287 287 288 287 287 288 288 288 289 289 288 287 287 287 287 287 287 286 287 287 288 288 288 287 287 286 286 286 285 285 285 285 286 286 286 287 286 286 285 285 285 285 285 285 286 286 287 287 287 287 287
289 289 289 286 284 285 284 281 280 283 284 291 292 293 292 295 297 291 281 282 294 295 295 295 295 295 296 296 294 293 291 289 292 293 288 288 288 288 288 286 286 286 286 287 287 288 287 287 286 286 285 285 285 286 286 287 287 286 286 285 285 284 284 284 284 284 284 284 284 285 285 285 284 284 284 284 284 285 285 285 285 286 286 286 286 286
286 286 287 283 284 285 285 283 286 286 291 290 291 291 291 295 294 285 280 290 291 292 293 295 294 296 296 294 293 291 293 293 292 289 288 287 286 286 286 287 286 287 286 286 286 286 286 286 285 285 284 284 284 285 286 286 286 285 284 283 282 281 281 282 282 282 282 282 283 283 283 283 283 282 283 284 284 284 284 285 285 285 285 285 286 286
285 286 286 287 284 283 285 283 283 287 292 293 291 292 294 291 284 283 291 289 289 288 286 290 294 292 294 294 295 294 288 286 288 287 286 287 286 286 285 285 285 284 285 285 285 286 286 285 284 284 283 283 283 283 284 284 284 283 282 281 279 280 281 280 280 280 280 280 280 281 281 281 281 281 282 282 283 283 283 284 285 285 285 286 285 285
286 284 282 283 286 286 285 282 282 278 289 293 292 291 293 288 291 295 289 287 287 289 289 289 292 291 293 289 289 287 286 286 286 286 286 286 285 285 284 284 284 283 283 283 283 284 285 284 283 282 281 281 281 282 282 282 281 281 280 279 279 279 278 278 277 277 278 278 278 278 278 279 279 279 280 281 282 282 282 283 284 284 284 284 284 284
292 285 285 286 289 283 283 281 282 289 292 294 295 290 291 294 294 291 294 290 288 288 290 291 290 291 291 289 286 286 286 286 286 286 286 285 285 285 285 284 284 283 283 283 283 283 283 282 282 280 280 280 280 280 280 280 279 279 278 277 278 276 275 275 274 275 275 275 275 275 276 276 277 278 279 280 280 280 281 281 282 282 283 283 283 283
290 288 290 286 290 288 286 289 292 289 293 293 292 293 294 292 290 291 294 292 290 289 289 291 290 288 290 289 287 286 285 286 285 286 285 285 284 284 283 283 282 282 282 281 281 281 281 280 280 279 277 277 278 279 279 278 277 277 275 275 275 274 273 273 273 273 273 273 273 273 274 275 276 277 278 278 279 279 279 280 280 280 281 282 282 282
287 289 287 289 288 287 290 289 289 289 289 289 290 289 289 289 290 291 292 291 291 291 289 290 289 288 288 288 286 286 286 286 285 285 286 285 284 283 282 281 280 280 279 278 278 278 278 277 277 277 276 275 276 276 277 277 276 274 274 274 273 273 272 271 271 271 271 271 271 272 273 273 274 275 276 276 278 278 279 279 279 279 280 281 281 282
289 287 288 287 287 288 285 288 288 291 290 289 290 288 288 288 289 289 289 291 291 290 289 290 289 289 288 288 287 287 286 286 285 285 285 284 283 281 280 279 279 278 277 275 275 276 275 275 274 274 274 274 275 275 276 276 274 274 274 273 272 271 270 270 270 270 270 270 271 272 272 272 273 273 274 275 276 277 278 278 278 279 279 280 280 280
287 289 289 287 287 287 288 286 286 286 286 286 287 289 289 288 286 286 287 288 289 288 289 288 288 287 288 287 288 287 286 286 285 284 284 283 282 280 279 278 277 276 274 274 274 274 273 273 272 272 272 273 273 274 275 274 273 273 272 271 270 269 268 268 268 268 268 269 270 271 271 271 272 272 273 274 274 275 275 277 278 277 278 278 279 278
288 290 286 287 287 288 285 284 285 286 288 288 286 286 289 288 286 285 286 286 287 286 286 287 287 287 288 288 288 287 285 285 285 284 283 282 280 278 277 276 276 275 274 272 272 272 272 271 271 271 271 272 273 273 274 273 272 272 271 270 269 267 266 266 266 267 267 268 269 269 270 270 271 271 272 272 273 274 275 275 275 276 277 278 279 279
288 286 287 287 285 285 287 287 286 287 287 290 288 288 286 285 285 285 285 286 286 285 285 284 282 282 284 286 287 286 284 283 283 283 282 280 278 276 275 275 274 273 272 271 270 270 270 270 270 270 270 271 272 272 272 271 271 270 270 268 266 265 264 264 264 266 266 267 267 268 268 269 270 270 271 271 271 272 273 275 277 277 276 276 279 280
288 289 287 287 286 286 291 290 290 291 289 289 292 290 287 286 286 285 286 286 286 285 285 283 281 281 282 281 283 285 283 282 281 281 278 276 275 274 274 274 272 271 270 270 268 268 268 268 269 269 269 270 271 271 270 269 269 269 268 266 264 263 262 262 263 265 265 266 266 266 267 267 268 269 269 270 270 270 271 272 274 276 277 278 278 278
Wind_Speed
2 8 8 10 10 9 10 4 3 3 3 5 3 3 1 4 2 2 2 3 2 2 9 9 10 11 11 12 11 10 3 6 9 11 10 10 9 8 8 9 9 9 12 3 3 6 8 8 7 7 7 9 10 11 12 13 14 14 14 13 15 13 14 12 12 12 13 13 12 12 11 12 10 11 12 9 6 7 8 8 9 8 7 9 10 10
2 6 8 2 2 8 6 7 8 8 3 7 6 5 3 3 4 2 2 2 1 3 1 1 5 12 14 12 12 11 6 13 12 11 12 12 11 9 9 9 9 11 5 3 5 7 6 7 7 6 7 9 11 12 13 15 15 15 15 15 14 11 13 14 13 12 13 13 12 12 12 12 10 10 10 12 10 8 7 10 8 8 8 9 10 10
6 9 3 3 4 9 7 4 3 6 7 2 5 3 2 4 2 2 2 2 1 2 4 2 7 11 11 10 10 11 12 10 9 12 12 11 11 9 7 8 9 7 9 5 7 7 7 8 8 7 7 8 12 11 13 14 13 13 13 14 13 12 12 13 14 12 12 13 13 12 10 10 9 10 11 12 11 11 10 10 11 12 13 12 11 10
5 5 3 6 6 9 4 3 8 7 4 4 4 5 5 2 5 4 3 2 2 2 3 3 7 11 11 9 11 12 11 8 6 7 10 8 11 11 9 7 7 9 9 10 8 9 7 7 7 7 7 9 8 9 10 12 14 12 12 13 13 13 13 12 14 13 13 13 12 12 11 10 10 8 9 11 10 12 12 13 12 13 13 14 11 8
3 3 2 5 4 8 8 3 8 7 6 1 2 3 3 3 3 3 2 2 0 1 1 4 7 11 8 7 7 4 1 5 9 8 10 11 11 9 6 8 9 11 10 10 9 8 7 7 7 8 8 7 8 10 10 11 12 10 14 14 14 12 13 11 12 14 13 11 10 11 10 7 3 1 6 7 9 11 11 9 8 10 9 9 8 9
2 2 1 6 4 4 7 5 5 6 4 3 4 3 3 4 6 3 4 4 2 3 4 2 5 6 1 3 7 2 2 4 3 4 9 8 6 5 8 11 8 10 10 11 12 9 6 7 7 6 7 8 9 10 9 9 10 10 10 11 11 10 10 11 12 12 13 13 13 11 11 10 10 8 6 12 13 11 11 12 8 9 11 9 10 9
2 1 2 6 7 6 6 6 5 4 4 3 4 4 3 5 7 7 5 3 3 3 3 3 6 5 2 4 3 1 4 9 4 7 10 6 4 4 6 5 5 6 6 7 9 9 9 8 8 8 8 8 9 9 7 7 8 10 9 10 11 10 9 10 10 12 12 14 13 13 13 11 12 11 9 9 9 9 9 8 10 10 10 12 11 10
4 4 4 3 6 7 5 6 5 6 5 5 2 3 7 8 8 7 6 3 2 2 1 0 2 5 8 5 1 3 5 8 7 8 8 4 3 4 4 4 4 5 5 6 7 8 7 6 7 7 6 6 7 5 5 7 8 10 10 9 10 9 9 9 9 12 14 14 14 12 13 12 12 13 12 13 12 11 8 9 9 7 9 9 9 8
3 6 4 7 2 5 7 1 5 7 4 1 1 2 5 4 5 6 3 3 2 3 4 4 1 3 7 3 1 2 4 6 8 7 5 2 2 2 2 3 3 4 5 6 7 6 6 6 5 5 5 4 4 4 5 6 7 7 8 9 9 9 9 9 12 13 15 14 13 14 13 12 11 13 11 9 9 10 11 12 11 10 8 8 10 10
2 2 4 3 8 7 3 2 2 2 5 1 4 6 7 6 6 2 3 2 1 1 7 5 0 4 12 3 4 2 3 9 10 9 3 4 3 3 3 2 3 3 3 4 6 7 6 5 4 3 3 4 3 3 4 5 6 7 8 9 10 10 9 9 13 14 15 15 12 13 14 15 14 11 8 6 9 10 9 9 10 11 9 8 8 8
1 1 2 1 2 3 6 5 1 3 3 11 7 10 5 6 3 2 4 1 1 4 4 5 3 3 6 3 5 4 5 6 2 1 1 2 2 2 3 3 3 4 4 3 4 4 4 2 2 2 2 0 1 1 4 4 5 6 7 9 10 11 8 10 13 14 15 14 13 13 14 16 15 12 10 8 10 9 8 9 8 9 9 9 9 8
2 2 1 1 2 4 2 8 8 2 5 5 3 5 9 4 1 2 2 0 2 5 4 3 2 3 7 3 4 4 4 3 3 0 2 3 3 3 2 2 3 4 4 5 4 2 1 4 3 2 2 2 3 3 4 4 5 6 7 8 10 10 10 10 12 13 13 13 13 13 13 14 14 12 11 12 11 9 9 9 10 9 8 9 9 9
3 3 2 2 3 1 5 9 4 1 3 2 6 8 6 3 1 2 2 3 7 4 2 2 2 3 14 11 7 5 8 7 6 5 4 2 3 3 3 3 4 4 4 3 3 2 2 2 2 3 2 3 4 4 5 5 6 6 7 9 10 10 11 10 11 13 13 13 12 13 12 13 11 12 12 12 12 12 11 10 9 11 10 8 7 8
2 3 0 2 2 4 5 9 5 3 4 3 10 8 6 4 3 4 2 2 4 1 2 2 2 6 8 7 13 17 13 2 3 7 7 5 6 6 6 6 6 5 4 3 2 1 1 1 1 1 2 2 3 4 4 5 5 6 6 8 8 9 9 9 9 11 12 12 12 12 12 11 10 11 10 10 10 11 10 9 10 10 10 9 10 9
6 4 8 11 5 6 3 2 6 6 11 6 3 5 3 4 4 5 4 5 3 1 2 2 0 4 1 1 3 5 8 5 3 4 3 5 7 6 6 7 7 5 2 1 1 1 1 1 1 1 2 2 2 3 4 4 4 6 6 7 8 9 8 8 9 8 10 9 10 10 10 10 9 9 8 9 8 8 10 9 9 9 9 9 10 10
6 0 3 5 2 0 7 3 2 8 5 2 1 3 2 4 0 1 1 1 2 1 2 2 5 3 4 6 8 6 7 7 5 4 3 7 5 3 5 5 3 3 2 1 1 1 2 2 1 0 2 2 2 3 2 4 4 5 6 6 6 8 9 8 8 8 8 9 8 9 9 9 8 6 6 7 7 7 8 9 8 9 9 9 10 9
4 6 4 1 1 0 1 1 1 1 7 5 4 4 1 4 9 6 2 2 1 1 4 3 5 6 5 8 12 4 3 8 3 3 3 5 1 1 4 4 4 3 2 1 1 1 2 2 1 0 0 2 2 3 3 4 4 5 5 5 6 6 8 8 8 8 8 8 8 8 8 8 7 7 8 7 8 8 7 7 8 8 8 9 9 7
9 3 2 1 3 1 1 2 2 5 3 8 4 7 3 1 1 2 2 1 0 4 2 3 6 7 2 6 3 4 5 8 1 4 5 1 0 3 3 3 4 1 1 2 2 2 2 2 2 1 1 2 3 3 4 4 3 3 3 5 6 6 7 8 8 9 8 8 8 8 8 8 9 8 9 9 8 8 7 7 7 8 8 9 8 7
4 4 2 2 1 2 2 2 4 2 3 2 1 5 5 3 4 1 1 1 2 2 3 2 3 5 7 8 2 2 1 2 3 3 0 3 2 2 2 3 4 0 0 2 2 1 1 1 2 2 2 1 1 1 1 1 2 2 2 3 4 6 5 7 5 6 5 6 4 5 6 7 7 7 6 6 7 7 7 8 8 8 7 6 6 6
1 3 2 1 2 0 2 3 8 4 2 3 2 3 3 2 1 5 3 1 0 3 0 2 2 6 6 6 7 13 9 2 4 1 1 0 0 2 2 2 3 2 2 2 2 2 1 1 1 2 2 2 2 1 0 0 1 3 3 3 3 1 2 3 4 4 4 4 3 3 3 4 4 4 4 4 5 6 7 7 6 6 6 5 4 4
4 3 3 2 1 2 5 6 9 11 10 4 5 6 2 1 2 2 2 2 2 2 3 3 4 2 2 5 4 7 3 1 1 1 1 1 0 1 2 2 3 2 2 3 3 3 2 1 0 1 1 1 2 2 1 1 2 2 2 3 3 4 4 4 4 4 3 3 4 4 4 4 3 3 3 5 6 6 6 5 5 4 4 3 4 4
3 2 4 5 4 7 2 4 3 4 2 4 9 11 11 8 5 5 5 3 0 3 3 3 7 1 1 2 6 5 1 1 2 3 1 1 3 3 3 4 3 4 1 2 3 3 3 3 2 2 2 2 1 1 2 1 1 1 2 2 2 3 3 4 3 3 2 2 2 3 2 2 3 4 4 5 5 5 4 3 3 3 2 4 4 4
3 3 6 5 4 3 1 1 1 2 2 1 2 4 5 4 4 4 7 5 1 0 3 0 2 4 3 1 3 3 1 1 1 2 4 3 5 5 6 4 3 3 3 2 2 2 2 3 3 3 3 2 1 1 1 0 1 2 2 2 2 2 1 0 1 1 1 1 1 2 2 3 4 3 4 4 3 3 3 2 3 2 3 4 4 4
4 4 4 3 3 1 1 2 2 1 1 3 5 1 4 11 10 6 2 6 6 4 2 1 3 4 1 1 3 5 4 3 4 6 5 3 4 5 6 7 6 3 0 0 1 0 2 2 2 3 3 2 1 0 1 1 1 1 2 2 2 2 4 3 3 2 1 1 1 2 2 2 1 1 1 2 2 3 3 3 3 2 3 4 4 4
6 5 9 4 2 1 1 1 1 1 1 6 8 8 6 3 7 2 4 0 2 6 5 5 6 8 3 1 1 3 3 5 3 5 6 4 3 4 3 4 3 1 0 3 3 3 4 5 5 4 3 2 3 2 2 2 2 2 2 2 1 2 3 2 2 0 1 2 3 3 2 1 1 1 2 3 2 3 3 3 3 2 3 3 3 3
3 4 9 8 8 8 7 9 10 10 12 2 3 3 6 10 10 5 5 4 6 3 6 6 10 5 2 1 3 4 3 4 4 3 4 5 2 3 3 3 3 2 2 2 3 4 5 3 3 3 4 3 3 2 2 2 2 2 3 3 2 2 2 1 1 2 3 2 2 2 1 1 1 1 1 2 2 2 2 2 2 2 1 2 3 3
2 0 8 13 15 14 13 14 7 7 7 6 13 15 12 12 11 4 4 3 9 5 7 13 14 2 6 5 4 7 5 6 4 3 3 3 4 5 4 3 3 3 3 3 3 2 2 4 5 4 3 2 2 3 2 3 3 3 3 5 4 2 2 2 2 2 3 3 4 4 5 4 4 3 2 2 3 2 2 2 3 2 3 2 3 4
2 4 8 11 14 14 15 10 7 14 17 16 15 12 11 12 12 12 11 12 7 8 7 11 14 12 10 7 9 9 7 4 5 3 3 4 5 5 6 7 4 2 1 1 1 2 4 3 3 4 4 4 4 4 5 5 5 5 5 5 4 4 5 4 5 6 6 5 6 6 6 6 5 4 4 4 4 4 5 5 5 5 4 4 4 5
4 7 12 10 14 14 1 8 9 8 9 8 12 12 14 15 14 15 16 15 11 12 13 20 19 17 14 13 10 9 8 9 7 4 4 1 1 4 3 5 2 4 3 1 0 2 2 4 4 5 5 5 5 6 6 6 5 5 5 6 7 7 8 6 6 7 7 7 8 7 6 6 5 5 6 6 6 6 6 6 5 5 4 4 4 4
3 5 9 8 14 14 3 5 4 10 6 6 11 13 14 15 15 16 16 14 13 13 17 16 6 19 13 14 14 9 8 5 3 2 4 5 3 4 4 4 4 5 4 1 1 2 3 4 4 4 5 6 6 6 6 6 6 7 8 8 8 8 7 6 7 8 8 9 8 7 7 6 6 6 6 7 6 6 5 5 5 4 4 4 5 5
5 3 6 5 5 11 5 2 1 3 9 10 6 9 12 13 15 18 17 18 14 15 14 17 7 11 7 9 11 7 2 2 3 4 3 2 2 5 5 6 5 3 2 2 1 1 3 4 4 4 6 6 6 6 5 5 5 5 7 7 7 8 6 6 8 8 8 8 7 6 6 6 6 5 6 6 6 6 7 6 6 5 5 5 5 6
5 2 1 3 5 7 5 10 5 2 1 2 6 10 12 14 15 14 15 19 16 17 20 15 9 14 8 14 5 5 7 9 8 8 6 5 7 5 4 4 6 3 4 3 1 3 4 4 5 5 5 5 6 6 6 5 5 6 7 6 7 6 5 7 8 8 8 6 6 6 7 6 5 6 6 6 6 6 6 6 5 5 5 5 5 5
8 4 4 5 7 9 1 6 7 5 3 1 7 15 19 20 18 20 12 3 9 14 13 9 16 15 10 10 10 11 12 12 10 8 9 11 5 2 6 5 3 3 4 4 4 4 4 5 5 5 5 5 5 5 5 4 5 6 5 6 4 4 6 7 7 7 6 6 6 6 6 5 6 6 6 7 7 6 6 5 5 4 5 5 5 5
3 7 5 5 6 2 2 5 5 5 10 11 12 20 19 19 19 11 11 15 11 11 11 14 13 5 10 9 12 11 11 12 11 3 3 2 3 4 4 4 2 4 5 4 4 6 6 5 5 5 6 5 5 5 4 5 6 5 5 5 5 6 6 6 6 6 6 6 7 7 7 7 7 7 7 7 7 6 6 6 5 6 6 6 5 6
9 8 5 2 4 2 2 6 5 11 11 12 4 6 15 14 13 14 16 17 15 14 13 15 15 17 8 9 8 10 10 4 6 4 3 4 2 1 3 3 2 5 7 7 7 6 6 7 7 6 5 5 4 4 4 6 5 5 6 5 6 6 6 6 6 7 6 6 6 6 7 7 6 6 6 6 4 4 4 7 7 5 5 5 6 7
8 8 3 0 2 4 2 6 7 8 4 1 2 1 4 10 12 14 17 16 17 18 17 18 18 16 10 9 6 5 6 5 5 5 3 2 2 2 5 4 4 5 6 5 8 8 7 6 6 6 6 4 4 5 5 5 3 6 6 5 6 5 5 5 6 6 6 6 6 6 6 6 5 6 6 6 5 5 5 5 5 6 6 5 5 4
9 6 5 5 3 5 5 10 5 7 6 4 4 5 12 12 13 15 11 15 11 8 11 14 17 17 13 8 7 6 5 5 4 2 3 2 2 3 4 7 6 7 8 7 7 8 6 6 7 6 5 6 6 6 6 4 4 5 6 6 6 5 6 6 7 7 6 6 6 6 6 6 6 6 6 5 5 5 5 6 6 5 4 5 5 6
4 8 7 10 4 4 4 3 2 4 10 8 10 1 7 6 12 14 14 11 9 14 16 17 18 18 14 5 8 7 6 6 6 6 5 3 4 8 7 8 8 7 8 8 7 8 7 7 6 5 5 7 8 7 4 4 4 5 6 6 5 6 6 7 8 7 7 7 7 7 6 6 6 6 5 5 5 6 6 5 5 5 4 6 7 7
2 3 1 5 3 5 4 6 7 10 11 13 5 7 8 7 9 7 7 12 7 13 15 17 17 13 8 9 8 9 5 6 10 4 7 7 6 6 9 7 7 7 6 7 8 8 7 6 6 6 6 7 9 7 5 4 4 5 7 6 6 6 7 8 7 8 8 7 7 7 6 6 6 6 6 6 6 6 7 6 6 6 5 6 6 7
5 3 3 5 6 6 7 10 10 4 6 6 8 5 7 9 12 10 8 8 15 10 12 12 15 12 12 12 10 11 9 9 10 5 9 9 9 7 8 10 9 8 8 7 6 6 7 6 6 7 8 9 7 6 5 4 5 6 6 6 6 7 7 7 7 6 6 6 6 5 6 5 5 5 6 7 6 6 6 6 6 6 6 7 6 8
7 3 7 12 9 10 11 5 3 4 4 1 4 4 7 12 15 11 13 7 4 9 9 11 13 16 12 9 12 9 7 1 4 12 12 10 10 8 7 7 8 8 8 8 7 6 6 6 7 7 7 6 6 5 5 4 4 6 6 6 6 7 6 6 6 6 6 6 6 6 5 5 5 7 7 6 7 7 7 6 6 6 6 7 6 7
3 4 1 4 7 9 9 10 8 5 4 4 3 8 10 9 9 14 5 4 8 6 2 6 9 4 6 9 7 3 5 7 12 12 12 11 10 10 9 9 9 8 7 6 5 5 6 6 7 7 7 7 6 5 5 3 5 6 5 5 7 6 5 6 6 6 7 7 7 6 7 7 7 7 7 7 7 8 8 6 7 7 7 7 7 9
13 11 11 11 8 5 4 6 5 9 7 13 13 4 5 6 4 4 5 1 2 3 5 4 4 5 7 6 4 10 12 11 12 12 11 10 11 11 10 9 8 9 8 7 6 4 5 6 6 7 7 6 6 5 6 6 6 6 5 7 7 6 6 6 7 7 6 6 7 7 8 8 9 8 7 8 8 8 9 8 7 8 7 7 8 10
10 8 5 6 9 8 12 11 9 7 5 13 15 9 8 10 2 4 9 5 2 3 4 5 3 5 4 10 12 11 12 13 10 10 10 8 8 8 8 8 8 8 7 6 5 5 4 6 6 6 7 6 6 6 6 6 7 7 7 8 7 6 6 6 7 6 6 6 7 7 7 7 8 7 7 8 8 8 8 9 9 8 6 6 8 8
7 11 8 11 9 10 6 8 2 2 10 4 3 2 4 4 1 3 1 6 7 5 4 2 6 6 6 11 12 15 12 10 13 12 12 11 10 9 9 8 7 7 6 6 6 5 5 5 6 6 7 6 7 6 7 6 7 7 8 6 6 6 6 7 7 6 6 7 7 7 7 8 7 7 7 7 8 8 8 9 9 9 7 7 7 8
3 1 1 2 4 2 3 1 2 1 2 3 1 1 0 1 1 3 5 6 3 4 8 6 8 8 9 11 14 7 11 13 13 11 8 10 9 9 9 9 8 7 7 6 6 5 5 6 6 7 6 6 7 6 6 6 7 7 6 6 6 7 7 8 7 7 8 8 7 8 8 9 8 7 8 9 7 7 7 8 9 9 9 7 7 8
2 0 0 2 1 8 9 4 5 4 1 3 2 2 1 1 2 3 4 2 7 7 6 5 9 12 13 12 12 14 12 12 11 9 9 9 9 9 8 8 7 7 6 6 5 4 4 5 5 6 5 6 6 5 5 7 7 7 6 6 7 8 8 8 8 7 7 8 7 7 7 8 7 8 7 6 6 6 6 7 7 8 8 8 8 9
3 4 3 1 3 9 3 1 2 4 5 5 3 3 2 3 1 1 1 2 5 5 4 7 7 7 7 8 9 13 11 8 11 11 10 9 9 8 8 8 8 7 6 5 4 4 5 6 6 6 5 5 6 5 5 6 7 7 7 7 8 8 9 8 7 7 7 8 7 6 7 7 9 9 7 7 7 8 8 6 6 7 9 8 8 10
2 8 5 5 7 0 4 1 2 3 5 6 5 7 4 2 3 3 4 7 7 10 9 6 3 6 6 5 8 10 12 8 8 10 11 9 8 7 7 7 7 7 6 5 4 4 4 5 6 6 6 6 5 4 4 7 6 6 7 7 8 9 9 8 8 7 7 6 6 7 7 7 7 8 8 9 8 7 7 8 8 9 10 9 7 8
3 7 2 4 4 5 8 6 9 3 3 7 10 11 7 4 5 5 6 7 8 10 10 11 7 5 5 4 7 9 11 11 9 10 10 9 9 9 9 8 7 7 6 5 4 4 6 6 6 5 6 5 4 3 5 6 5 6 6 7 7 8 7 8 7 6 6 6 6 7 7 7 7 8 8 9 9 11 11 9 12 12 11 12 11 14
9 8 7 6 8 10 6 7 12 3 1 2 8 9 10 8 8 9 10 10 8 6 10 13 11 7 6 4 2 7 9 11 11 9 9 8 8 7 7 8 8 6 6 5 5 5 5 4 5 5 5 4 4 4 5 5 5 5 7 7 7 7 7 8 6 5 6 6 6 7 8 8 7 8 8 8 9 9 12 14 11 10 14 17 20 22
Wind_Direction
343 168 186 193 189 178 182 188 67 79 146 98 74 114 169 200 113 53 109 46 274 228 232 234 247 263 265 256 262 271 190 240 252 257 254 254 249 238 232 229 229 230 240 164 207 229 226 230 229 221 217 215 214 213 209 206 209 209 208 204 210 208 208 210 210 212 213 213 215 217 214 216 211 217 217 212 209 204 199 189 186 182 183 189 195 196
206 200 209 170 110 170 126 112 113 88 81 154 165 188 180 216 207 77 100 72 77 257 152 82 267 261 257 258 256 256 249 254 242 244 243 244 243 239 229 235 231 235 243 191 236 219 213 227 220 212 214 211 211 213 207 208 208 207 207 208 208 204 204 210 211 209 213 214 214 212 212 212 208 207 208 216 206 201 188 195 191 193 191 194 197 196
185 209 143 109 87 83 94 104 96 129 128 79 185 172 199 202 1 139 118 124 47 206 251 105 280 267 257 250 246 239 239 244 232 233 245 244 240 235 229 236 244 243 253 227 230 227 218 207 209 207 213 216 218 217 207 211 208 207 207 209 205 203 202 207 210 210 213 214 216 217 219 213 208 207 211 220 227 217 206 189 196 200 203 201 205 194
190 212 85 113 146 114 73 111 111 95 81 137 125 168 206 72 185 210 137 132 62 317 344 333 304 281 272 243 243 238 234 246 249 262 263 254 252 243 235 234 245 249 256 255 235 232 218 209 211 206 213 215 212 214 210 206 206 206 207 206 203 205 203 205 207 212 214 213 212 214 224 225 231 231 222 221 223 221 220 220 206 211 213 212 207 184
158 37 15 149 173 147 137 155 152 165 174 320 212 144 124 157 221 341 103 103 108 153 278 266 269 276 249 248 238 182 306 281 267 260 254 247 240 252 279 280 254 253 254 264 261 243 232 221 220 218 218 209 211 213 211 202 201 203 205 204 202 202 203 203 204 208 214 212 211 214 218 204 150 76 212 216 228 228 227 224 207 207 199 196 196 191
105 31 161 131 123 104 124 160 206 170 188 162 239 212 158 179 148 110 100 155 194 209 67 355 280 259 122 245 250 281 301 249 201 252 253 242 223 211 234 239 239 237 247 256 264 265 256 242 241 226 222 221 220 219 213 208 204 204 205 203 200 202 201 201 200 200 207 210 207 197 205 209 210 213 192 204 213 212 212 215 206 198 195 198 205 202
78 102 235 153 150 145 166 183 188 208 180 173 207 180 150 150 128 129 137 186 227 251 70 326 247 273 35 281 241 106 300 284 237 233 260 249 223 220 239 242 235 238 244 243 253 260 256 249 240 238 229 225 226 224 207 200 205 208 207 200 198 198 200 198 197 197 203 208 209 204 206 209 212 215 218 212 208 203 211 211 208 205 197 202 206 211
128 130 131 109 129 149 149 199 190 195 152 212 68 152 117 131 141 158 149 233 10 21 159 290 340 279 296 263 10 8 297 282 283 255 240 225 230 235 244 254 257 258 257 264 263 256 246 246 240 247 235 225 228 220 197 205 203 204 203 196 196 198 198 191 191 201 203 205 206 201 207 210 213 218 224 222 223 220 209 206 214 213 212 204 205 209
154 146 185 141 162 164 195 166 135 197 174 268 199 273 116 112 102 127 140 107 40 348 255 146 132 276 246 259 128 355 299 259 259 257 239 143 234 252 264 264 260 267 273 272 273 268 248 228 231 241 249 254 248 222 209 205 201 196 197 195 193 196 192 189 194 202 202 205 205 204 207 211 218 222 225 227 230 231 231 231 226 229 233 227 214 214
318 196 190 153 160 187 66 358 330 272 168 243 154 102 101 99 77 69 123 105 143 252 256 152 31 249 273 198 239 81 265 270 257 254 308 319 301 286 288 286 287 286 268 260 261 270 264 247 233 246 275 266 239 210 205 200 189 189 186 188 188 194 193 191 199 200 200 201 201 202 207 211 214 218 224 223 221 223 225 231 233 232 224 224 223 219
333 9 271 61 194 63 117 44 30 7 51 130 194 107 84 57 62 76 54 64 170 246 245 54 342 287 293 214 220 186 220 241 277 -0 239 265 275 256 240 268 312 319 314 308 301 280 272 256 243 229 239 176 112 174 186 182 185 179 182 184 188 192 188 193 199 197 198 198 200 204 207 210 214 212 214 211 223 224 225 224 221 224 229 230 232 225
70 92 148 40 22 130 106 87 40 50 115 162 151 131 112 60 104 90 71 336 212 244 79 359 17 302 225 261 235 266 329 251 246 220 328 349 350 311 310 309 317 320 315 312 317 358 98 126 115 147 142 132 127 145 162 164 169 174 180 181 185 186 189 195 196 195 196 197 201 206 206 209 214 213 213 215 215 211 216 222 228 228 232 234 236 237
98 132 55 36 270 170 153 101 78 82 262 207 142 155 158 148 145 190 171 214 206 238 69 22 282 251 237 245 323 291 279 251 208 243 261 315 309 308 292 315 311 308 310 307 326 345 63 84 118 130 120 138 154 151 156 158 164 171 178 183 181 186 194 195 192 194 196 198 202 204 205 210 213 215 219 222 223 227 227 228 227 231 231 228 227 226
155 119 262 110 128 235 228 142 140 171 200 213 170 163 160 158 169 214 178 353 332 9 22 56 74 266 292 280 237 250 255 58 230 229 247 265 278 297 311 321 316 312 311 310 307 347 56 80 97 105 117 140 141 144 148 157 165 169 176 181 181 185 191 190 189 192 196 202 204 205 206 211 212 217 219 222 226 229 232 232 232 230 233 234 231 231
168 237 203 163 190 137 216 291 172 155 162 203 10 181 199 166 157 193 175 204 222 108 83 208 176 239 200 49 23 284 305 304 290 280 280 272 270 280 289 287 281 286 309 284 282 25 73 91 86 119 139 153 154 150 152 158 162 163 170 178 179 177 187 189 190 191 197 199 204 206 210 212 212 215 218 224 227 229 230 232 232 232 232 236 237 235
229 324 38 8 324 112 177 251 53 97 54 29 219 23 161 212 348 212 47 350 99 145 166 177 232 278 238 352 274 235 267 274 247 251 244 269 261 263 283 269 277 287 304 317 320 73 80 55 48 137 164 159 161 162 154 164 161 171 172 174 174 177 175 185 186 192 194 199 202 207 207 210 212 212 218 225 227 232 236 239 240 243 241 246 251 248
39 220 32 10 110 241 26 317 229 246 182 182 142 208 155 13 101 113 98 67 336 359 250 148 272 259 257 262 266 315 316 273 181 236 229 245 272 286 253 273 279 276 298 12 353 13 33 47 50 248 199 161 165 172 185 177 180 182 164 169 165 155 168 177 185 189 194 197 199 202 203 202 205 208 214 222 228 233 238 243 245 249 255 258 259 262
168 125 17 55 157 -0 345 317 37 45 315 109 217 183 127 207 60 144 219 93 280 251 262 116 240 270 342 292 47 312 263 273 122 260 254 263 266 238 245 267 268 274 32 324 291 295 306 307 297 272 243 220 181 179 182 182 178 183 174 171 164 161 173 182 183 189 190 193 199 199 198 203 205 209 216 223 232 235 236 236 243 247 250 251 260 261
123 103 117 7 21 334 52 277 78 28 19 302 73 138 166 169 204 168 127 207 184 227 265 215 279 270 227 244 342 300 215 221 35 343 205 173 149 232 256 262 269 108 115 47 16 59 180 217 235 241 234 187 205 203 194 147 153 176 189 188 186 183 184 177 176 178 181 187 183 189 193 195 201 212 217 224 232 237 236 239 240 240 242 246 247 256
330 165 114 54 121 66 304 222 190 171 353 64 152 107 344 300 352 158 193 29 246 241 100 260 116 264 175 224 213 240 213 162 327 356 100 283 296 283 279 287 307 351 44 7 7 345 304 262 229 211 199 181 186 198 180 119 162 197 194 188 199 169 159 167 183 183 183 183 184 181 184 192 196 200 208 214 223 227 229 231 232 238 244 248 249 252
164 313 156 115 304 157 176 212 214 174 164 141 167 164 149 40 317 4 42 176 220 205 203 281 271 241 197 202 210 249 286 40 160 325 61 77 44 267 272 283 299 323 5 351 345 325 315 314 19 102 57 31 50 36 44 201 200 195 175 197 197 194 184 189 182 179 183 167 185 190 201 198 196 216 218 220 223 227 228 230 234 244 260 279 267 262
121 223 155 128 135 209 170 29 327 317 279 192 170 181 178 140 148 174 212 80 337 204 219 182 252 238 279 129 209 233 316 332 33 254 280 273 280 285 279 264 270 298 17 340 338 328 321 334 43 66 64 51 54 142 205 187 220 219 206 211 201 209 202 194 176 179 159 164 171 191 205 216 217 213 210 215 215 226 234 238 244 250 273 269 268 264
112 94 103 166 191 165 352 3 302 284 309 287 328 230 166 202 130 182 204 187 112 0 56 21 336 278 99 154 218 246 196 128 131 224 253 267 274 285 292 302 293 274 281 293 315 337 348 2 18 30 37 47 24 3 349 222 219 197 196 198 198 214 180 126 64 85 92 129 166 212 212 210 211 201 209 219 231 239 249 257 264 261 261 266 270 269
113 117 96 44 63 331 327 213 185 260 294 268 255 240 171 200 197 208 227 132 165 130 184 180 240 256 57 166 254 258 272 245 210 224 223 257 265 288 303 307 306 323 97 203 230 22 50 46 51 71 76 72 77 210 198 103 40 30 19 5 5 1 15 26 26 32 46 98 179 186 198 214 218 262 278 276 276 276 275 272 270 260 255 258 264 272
172 208 133 140 96 101 320 134 184 101 143 221 216 187 212 63 67 84 99 33 198 202 175 183 232 253 150 29 267 254 263 274 221 177 204 207 225 262 264 273 280 294 6 102 86 81 84 71 51 35 25 37 43 55 66 65 79 77 71 48 35 28 25 10 357 296 176 182 175 174 188 183 214 250 253 261 274 268 268 261 258 244 249 256 266 270
226 148 155 156 164 168 186 196 197 204 206 181 21 103 178 171 140 138 185 175 222 168 168 210 239 238 103 269 257 243 252 259 251 156 174 214 207 224 213 212 238 187 144 106 98 73 56 57 78 64 41 41 43 55 84 94 103 108 110 91 73 86 117 110 138 172 160 160 153 126 103 80 32 311 286 290 282 278 284 282 270 286 282 269 280 283
174 324 206 186 188 199 201 207 202 93 89 179 208 175 182 196 184 167 53 116 213 188 183 215 226 162 188 219 219 213 200 204 199 175 205 190 204 223 233 211 190 190 149 101 66 46 109 77 57 56 52 39 39 47 52 57 56 58 72 72 62 67 95 115 132 110 83 61 56 49 43 35 27 5 349 340 334 333 333 338 342 337 330 329 308 295
100 203 213 217 217 209 209 200 163 168 178 199 178 177 173 173 183 183 188 212 177 89 237 238 233 238 218 185 203 197 198 221 233 198 258 222 227 197 194 199 177 122 90 61 96 67 68 72 63 54 43 34 32 34 43 47 49 49 50 45 32 31 37 27 37 45 46 43 46 40 29 25 13 5 359 349 352 360 359 355 352 350 344 334 310 285
177 208 208 207 229 229 98 139 168 171 196 182 180 170 165 177 175 189 210 220 135 198 222 230 215 226 223 182 201 206 184 200 205 186 188 229 148 200 162 83 134 194 161 148 51 55 59 60 42 37 37 36 34 40 37 37 33 32 39 40 29 32 29 21 38 44 44 44 42 32 21 16 12 8 9 5 7 3 359 351 343 334 324 308 292 285
179 231 201 187 218 226 150 162 178 171 152 145 174 177 176 172 187 197 214 212 185 217 226 244 166 220 222 181 200 201 208 210 139 182 196 191 155 98 93 185 202 206 192 144 63 54 39 52 47 44 48 43 41 39 37 34 32 28 31 28 27 33 24 32 45 48 48 47 39 28 23 18 17 12 8 11 7 2 351 343 338 327 319 309 297 291
203 211 135 137 219 234 178 96 105 196 165 178 187 174 170 178 192 202 213 219 216 238 242 244 226 265 233 175 206 205 182 130 334 321 295 337 126 174 173 199 212 200 126 98 129 58 55 62 69 64 56 50 46 43 43 43 40 43 45 39 38 40 31 47 57 55 50 47 36 29 23 24 18 10 14 8 3 357 354 349 343 336 325 312 292 277
184 221 57 140 203 235 170 179 166 102 46 131 154 173 181 184 199 206 213 212 201 213 231 241 265 260 232 148 141 179 247 248 236 239 242 240 224 188 192 205 222 165 130 146 141 83 89 83 80 73 67 58 50 42 36 35 43 49 49 47 48 48 50 60 63 63 58 48 39 32 27 23 17 18 13 11 4 355 350 338 332 317 301 290 288 289
188 155 163 175 205 224 85 192 129 128 91 243 207 194 194 199 201 207 219 260 215 212 220 209 229 237 120 149 157 202 203 220 235 232 230 239 238 174 210 214 205 123 134 153 138 113 98 95 87 82 74 65 52 54 45 40 60 59 56 63 61 63 61 61 59 61 56 44 37 30 25 17 19 15 14 8 356 348 335 326 307 304 308 308 311 301
169 188 190 174 208 173 20 123 140 135 214 217 202 203 184 195 201 188 204 212 209 195 220 221 240 224 143 191 176 174 195 206 215 217 28 322 255 218 221 235 220 115 118 110 104 111 112 106 97 81 73 67 63 59 60 57 69 75 70 74 66 63 58 61 55 53 47 39 29 22 16 13 12 11 4 353 347 339 330 327 327 328 316 310 315 316
179 189 194 146 205 165 139 136 144 215 229 227 250 177 200 201 175 193 216 217 211 211 229 242 244 249 179 193 177 178 192 129 53 85 41 21 346 246 209 187 123 123 125 128 119 112 108 108 105 99 85 71 65 62 81 75 74 88 74 64 64 55 58 55 57 49 39 34 25 18 14 10 7 358 349 344 338 332 329 331 327 326 328 326 323 322
166 181 135 180 122 66 154 172 209 228 209 15 66 43 158 161 193 204 231 228 214 204 207 223 237 243 218 186 184 129 169 120 96 66 35 5 332 249 181 160 119 112 112 112 118 114 114 106 100 92 84 72 71 70 67 74 69 81 77 65 64 59 53 54 54 47 34 32 22 15 7 2 355 350 344 339 334 330 328 329 326 323 324 318 311 303
186 138 177 184 182 190 174 202 227 21 347 189 191 195 166 181 179 188 215 237 209 180 199 227 240 243 239 208 130 134 109 122 195 148 52 42 48 50 94 108 113 102 106 102 104 107 98 96 92 88 85 70 59 60 59 60 67 78 74 64 53 50 45 44 45 32 23 20 11 5 359 356 348 340 338 333 328 324 323 322 320 315 318 307 301 301
196 187 187 196 206 187 162 202 234 235 246 222 216 81 210 176 172 183 206 254 218 195 199 208 225 233 233 178 133 146 137 176 237 213 127 127 113 103 86 91 90 97 101 107 101 98 95 91 89 78 77 74 64 52 47 50 66 75 71 60 47 44 40 39 32 20 12 7 -0 352 350 345 340 332 328 323 317 316 314 310 301 299 307 303 301 293
48 49 358 220 176 160 195 206 200 212 228 236 196 156 174 189 161 145 181 244 217 190 198 202 222 232 221 221 163 135 151 215 234 184 143 143 140 125 116 105 101 100 98 103 115 111 102 90 86 84 71 66 61 43 40 48 57 67 66 54 44 40 40 33 19 10 0 352 345 342 342 338 335 328 321 316 314 313 307 306 307 299 293 289 289 284
139 186 161 209 212 200 194 212 221 203 236 235 173 189 147 128 125 120 204 242 237 171 190 193 212 222 224 217 145 176 182 220 230 148 154 142 137 130 126 128 121 113 104 101 90 98 105 109 98 74 60 56 51 38 38 50 70 69 66 59 51 48 37 22 6 353 342 334 331 332 333 327 323 317 316 310 307 310 306 302 297 302 301 298 288 292
181 172 197 205 205 210 208 237 274 271 251 205 178 135 146 153 145 184 209 213 101 157 178 177 196 214 208 162 158 190 215 336 83 120 135 137 121 111 99 100 107 111 118 117 114 116 107 95 86 81 75 65 52 44 40 54 79 77 70 63 57 47 29 6 348 341 330 326 324 329 331 329 330 325 316 319 316 309 304 306 304 303 300 300 299 302
173 174 205 209 214 206 207 219 227 268 238 135 359 136 165 139 201 210 202 30 148 136 209 215 196 119 129 154 169 157 117 131 115 120 135 142 134 128 129 122 114 102 92 97 112 123 116 109 100 93 81 66 57 50 43 64 93 86 79 71 55 41 17 1 347 334 329 332 332 331 333 333 334 328 323 320 319 321 316 310 306 302 305 309 305 306
177 177 182 183 194 216 210 232 229 248 235 140 115 98 283 213 242 109 115 87 44 179 140 173 176 165 143 106 98 124 129 127 132 135 137 135 137 140 141 142 133 130 127 125 113 106 122 113 98 82 76 62 54 46 51 73 84 81 73 58 46 27 11 354 346 335 335 336 337 335 335 337 333 329 326 322 322 316 307 307 307 310 300 298 303 305
161 192 170 209 182 187 191 200 208 217 73 146 154 191 188 223 28 188 142 133 203 190 186 130 188 172 168 129 141 133 137 134 128 137 132 136 131 128 125 120 118 110 108 95 97 103 104 103 98 92 72 57 53 48 44 56 64 61 58 49 32 10 2 350 339 330 333 337 337 336 333 327 326 324 322 323 322 314 308 316 320 310 306 305 303 298
185 208 177 199 175 206 209 216 174 184 170 174 42 41 195 148 74 199 21 135 152 211 192 177 147 159 163 138 134 140 139 152 148 152 147 150 143 140 135 131 125 121 113 108 92 80 79 91 99 94 77 56 50 46 46 45 56 58 56 33 18 3 357 345 341 344 347 343 336 329 329 327 321 320 322 324 321 322 318 312 318 312 309 311 303 299
10 267 37 136 235 28 333 113 16 332 269 236 73 55 126 132 86 177 157 127 223 161 173 171 156 145 152 146 132 144 152 153 149 155 140 137 132 123 118 113 108 103 98 90 83 74 82 88 84 90 89 69 53 47 51 55 54 52 37 23 16 3 358 346 347 353 345 340 335 330 325 326 320 321 326 319 318 309 307 308 311 309 309 311 305 302
263 66 120 165 154 167 231 170 171 221 296 285 237 93 107 229 210 204 251 274 152 151 154 154 159 157 158 163 151 151 151 154 142 141 135 133 130 132 128 118 111 107 103 91 81 90 89 101 95 87 85 73 53 48 46 63 53 43 30 22 13 4 358 346 350 343 339 337 326 320 323 322 328 324 316 313 314 308 305 307 305 303 301 304 310 310
260 183 187 193 170 198 240 66 287 328 292 297 260 231 216 203 174 27 8 25 88 99 112 136 133 129 147 155 162 144 145 147 143 141 144 140 136 129 124 123 120 111 93 83 79 86 91 83 90 87 85 76 54 35 42 54 43 37 31 24 15 3 354 346 348 337 324 320 317 320 325 324 322 322 319 322 321 318 315 307 303 301 298 305 310 309
138 130 204 179 196 49 32 134 284 288 285 244 229 240 238 147 154 94 87 103 122 120 118 104 88 136 154 134 141 133 130 143 136 141 134 134 126 125 124 123 119 112 107 97 77 71 86 93 89 84 80 74 55 29 49 51 36 34 28 25 16 3 351 343 332 318 318 322 334 332 335 330 326 327 323 321 318 304 295 302 304 296 287 278 278 283
127 197 141 103 203 226 227 190 156 153 213 224 221 207 184 154 128 129 131 139 145 139 138 128 106 62 73 91 132 140 131 135 139 139 135 132 134 130 130 125 123 116 108 100 87 89 86 79 81 77 78 70 52 36 60 46 39 37 35 30 14 1 353 342 333 332 340 343 342 341 339 336 333 331 326 321 319 316 308 284 273 275 285 293 284 275
202 186 147 189 188 222 211 140 183 191 10 243 206 179 155 167 156 163 174 166 160 146 149 135 125 118 115 86 60 138 136 140 146 135 121 123 126 127 130 135 134 134 126 125 115 99 94 86 87 83 80 71 54 56 48 43 37 38 33 28 13 5 357 351 350 347 340 343 342 336 327 324 323 323 322 319 318 317 316 317 311 284 274 277 290 296